NOAA 16 DEB, 41277

Orbit data source: Space-Track

NOAA 16 DEB, 41277 is space debris in SSO originally from a launch on Thu, 21 Sep 2000 UTC launched from the Air Force Western Test Range (AFWTR). Debris objects in space refer to the collection of defunct objects orbiting the Earth. Examples of debris include non-operational satellites, rocket bodies, and fragments generated from explosions, collisions, or faulty payload assembly.

Loading next visibility...
NOAA 16 DEB details
Identifier
41277, 2000-055GD
Orbit
SSO
Last TLE update16 hours ago
Origin
Flag of USNOAA (US)
ManufacturerUnknown
MissionSpacecraft
Bus & MotorUnknown
MassUnknown
Launch date (UTC)
2000-09-21 (24 years ago)
Launch vehicleUnknown
Launch site
Air Force Western Test Range (AFWTR)
Object type
Payload
Rocket body
Debris
Shape & HBRUnknown
Radar Cross SectionSmall (<0.1 m²)

Expand to show TLE details & history

TLE from 16 hours ago
0 NOAA 16 DEB
1 41277U 00055GD  24339.73376350  .00015351  00000-0  47167-2 0  9998
2 41277  98.9826 143.5711 0037493 358.0499   2.0537 14.41248419465517
Epoch: 2024-12-04T17:36Z
Definitive object data (Epoch: 2024-12-04T17:36:37.166Z)
Latitude0.00005°
Longitude165.39156°
Altitude730.581 km
Speed7.504 km/s
True Right ascension09h 34m 17s
True Declination0° 00' 00"
Sunlit
Object was in daylight at TLE epoch
Visualization TLE readout
Latitude-43.17653°
Longitude-22.39065°
Altitude788.895 km
Speed7.449 km/s
Apparent Right ascension20h 21m 24s
Apparent Declination-41° 58' 11"
Sunlit
Object is in daylight
Visualization observer readout
Local Sidereal Time07:36:45
Azimuth252.688° W
Elevation-81.329°
Doppler factor1
Orbital elements
Apogee altitude778.251 km
Perigee altitude724.789 km
Semi-major axis7,129.657 km
Eccentricity0.0037493
Inclination98.9826°
RAAN143.5711°
Arg. of periapsis358.0499°
True anomaly2.06917°
Mean anomaly2.0537°
Eccentric anomaly2.06143°
Mean motion3.60529 °/min
BSTAR0.0047167
Orbital period99.85 mins
Loading maneuver chart data...
Loading historical data...
Loading historical data...
Loading historical data...
Loading historical data...
Loading historical data...
Loading historical data...
Loading historical data...

NOAA 16 DEB Visibility forecast

Observer location: undefined°, undefined

Span
Click to sort rows by Start time (UTC) header in descending order
Start Az.
Max El. time (UTC)
Max El. Az.
Max El.
End time (UTC)
End Az.
8 mins2024-12-05 10:24:29.578Z129.444° SE2024-12-05 10:28:29.578Z58.203° ENE30.188°2024-12-05 10:32:29.578Z3.841° NNE
6 mins2024-12-05 12:04:29.578Z225.721° WSW2024-12-05 12:06:29.578Z257.201° W21.723°2024-12-05 12:10:29.578Z315.512° NNW
8 mins2024-12-06 00:11:29.578Z10.06° NNE2024-12-06 00:14:29.578Z311.157° NW44.553°2024-12-06 00:19:29.578Z199.371° SSW
|